Location: Albany
(35.0000°S, 118.0000°E)
Time: 18:59:39
(UTC-05:00)

Atlas Centaur 2 - Visible Passes

Search period start: 08 December 2016 00:00
Search period end: 18 December 2016 00:00
Orbit: 459 x 1314 km, 30.4° (Epoch: 07 December)

Date Brightness Start Highest point End Pass type
(mag) Time Alt. Az. Time Alt. Az. Time Alt. Az.
08 Dec 2.3 07:40:57 10° WNW 07:45:41 48° NNE 07:49:22 21° ENE visible
08 Dec 3.3 09:29:02 10° W 09:32:01 32° WNW 09:32:01 32° WNW visible
09 Dec 2.2 07:37:56 10° WNW 07:42:34 50° N 07:46:19 21° ENE visible
09 Dec 3.3 09:26:03 10° W 09:28:57 31° WNW 09:28:57 31° WNW visible
10 Dec 2.1 07:34:56 10° WNW 07:39:27 51° N 07:43:10 20° ENE visible
10 Dec 3.4 09:23:07 10° W 09:25:48 29° WNW 09:25:48 29° WNW visible
11 Dec 2.0 07:31:58 10° WNW 07:36:21 51° N 07:39:58 20° ENE visible
11 Dec 3.5 09:20:13 10° W 09:22:35 26° WNW 09:22:35 26° WNW visible
12 Dec 2.0 07:29:01 10° WNW 07:33:16 49° N 07:36:44 20° ENE visible
12 Dec 3.6 09:17:21 10° W 09:19:22 22° WNW 09:19:22 22° WNW visible
13 Dec 2.1 07:26:05 10° WNW 07:30:11 46° N 07:33:30 20° ENE visible
13 Dec 3.8 09:14:33 10° WNW 09:16:07 18° WNW 09:16:07 18° WNW visible
14 Dec 2.2 07:23:09 10° WNW 07:27:07 41° N 07:30:16 19° NE visible
14 Dec 4.0 09:11:51 10° WNW 09:12:54 15° WNW 09:12:54 15° WNW visible
15 Dec 2.3 07:20:16 10° WNW 07:24:03 36° N 07:27:04 18° NE visible
15 Dec 4.1 09:09:19 10° WNW 09:09:41 11° WNW 09:09:41 11° WNW visible
16 Dec 2.5 07:17:25 10° WNW 07:20:59 30° NNW 07:23:52 16° NE visible
17 Dec 2.8 07:14:38 10° WNW 07:17:54 25° NNW 07:20:42 14° NNE visible
